CZ-6A DEB, 61315

Orbit data source: Space-Track

CZ-6A DEB, 61315 is space debris in LEO originally from a launch on Tue, 06 Aug 2024 UTC launched from the Taiyaun Space Center, China (TSC). Debris objects in space refer to the collection of defunct objects orbiting the Earth. Examples of debris include non-operational satellites, rocket bodies, and fragments generated from explosions, collisions, or faulty payload assembly.

Loading next visibility...
Identifier
61315, 2024-140UC
Orbit
LEO
Country
Flag of CNCN / PRC
Related business
Manufacturer
SAST
Mission
Spacecraft
Bus & Motor
Unknown
Mass
Unknown
Launch date (UTC)
2024-08-06 (2 years ago)
Launch vehicle
Unknown
Launch site
Taiyaun Space Center, China (TSC)
Object type
Payload
Rocket body
Debris
Shape & HBR
Unknown shape, 0.1 m
Radar Cross Section
Medium (>0.1 m² and <1 m²)

Expand to show TLE details & history
Last TLE update: 17 hours ago

TLE from 17 hours ago
0 CZ-6A DEB
1 61315U 24140UC  26171.24789900  .00010312  00000-0  14700-2 0  9994
2 61315  88.9468 264.1359 0070195 223.1469 136.4239 14.74999078 96630
Epoch: 2026-06-20T05:56Z
TLE epoch observation values (Epoch: 2026-06-20T05:56:58.473Z)
Latitude
-0.00003°
Longitude
-93.57299°
Altitude
684.172 km
Speed
7.495 km/s
True Right ascension
17h 36m 32s
True Declination
0° 00' 00"
Sunlit
Object was in full shadow at epoch
Visualization orbit readout
Latitude
Unknown
Longitude
Unknown
Altitude
Unknown
Speed
Unknown
Apparent Right ascension
Unknown
Apparent Declination
Unknown
Sunlit
N/A
Visualization observer readout
Local Sidereal Time
10:18:03
Azimuth
Unknown
Elevation
Unknown
Doppler factor
Unknown
Orbital elements
Apogee altitude
691.305 km
Perigee altitude
592.749 km
Semi-major axis
7,020.164 km
Eccentricity
0.00702
Inclination
88.9468°
RAAN
264.1359°
Arg. of periapsis
223.1469°
True anomaly
136.97486°
Mean anomaly
136.4239°
Eccentric anomaly
136.69973°
Mean motion
3.68997 °/min
Orbital period
97.56 mins
BSTAR
0.00147
Loading maneuver chart data...
Computing Atmospheric mass density...
Loading historical data...
Loading historical data...
Loading historical data...
Loading historical data...
Loading historical data...
Loading historical data...
Loading historical data...

Documentation

Showing up to 5 results
|